Hourly Data Report for July 15, 2021

CAMPBELL RIVER A
BRITISH COLUMBIA
Current Station Operator: NAVCAN

49°57'07.000" N
125°16'23.000" W
108.80 m
1021270
YBL

Download Data

Hourly Data (July 2021)
Hourly Data Report for July 15, 2021
TIME
LST
Temp Definition
°C
Dew Point Definition
°C
Rel Hum Definition
%
Precip. Amount Definition
mm

Wind Dir Definition
10's deg

Wind Spd Definition
km/h
Visibility Definition
km
Stn Press Definition
kPa
Hmdx Definition


Wind Chill Definition


Weather Definition


00:00 15.4 8.5 63 LegendMM 29 10 LegendMM 100.16     LegendNANA
01:00 15.1 8.8 66 LegendMM 30 14 LegendMM 100.16     LegendNANA
02:00 13.8 8.9 72 LegendMM 30 11 LegendMM 100.16     LegendNANA
03:00 12.9 8.6 75 LegendMM 27 8 LegendMM 100.19     LegendNANA
04:00 12.4 8.6 77 LegendMM 27 9 LegendMM 100.23     LegendNANA
05:00 12.0 8.8 81 LegendMM 29 7 LegendMM 100.25     LegendNANA
06:00 13.8 9.3 74 LegendMM 29 9 LegendMM 100.28     LegendNANA
07:00 16.0 9.5 65 LegendMM 33 12 LegendMM 100.30     LegendNANA
08:00 17.5 9.8 60 LegendMM 34 13 LegendMM 100.30     LegendNANA
09:00 18.5 10.4 59 LegendMM 10 13 LegendMM 100.28     LegendNANA
10:00 19.2 10.5 57 LegendMM 8 10 LegendMM 100.30     LegendNANA
11:00 20.5 10.8 53 LegendMM 10 11 LegendMM 100.30     LegendNANA
12:00 20.5 11.1 54 LegendMM 12 17 LegendMM 100.30     LegendNANA
13:00 21.3 10.6 50 LegendMM 11 12 LegendMM 100.28     LegendNANA
14:00 21.7 9.6 46 LegendMM 7 11 LegendMM 100.29     LegendNANA
15:00 22.1 9.7 45 LegendMM 12 13 LegendMM 100.25     LegendNANA
16:00 21.9 10.6 48 LegendMM 11 13 LegendMM 100.20     LegendNANA
17:00 22.0 10.9 49 LegendMM 12 9 LegendMM 100.17     LegendNANA
18:00 20.9 12.8 59 LegendMM 17 3 LegendMM 100.15     LegendNANA
19:00 20.4 12.8 61 LegendMM 6 5 LegendMM 100.16     LegendNANA
20:00 19.3 15.3 77 LegendMM 5 4 LegendMM 100.13     LegendNANA
21:00 18.8 15.4 81 LegendMM 9 3 LegendMM 100.15     LegendNANA
22:00 17.8 15.3 85 LegendMM 31 4 LegendMM 100.16     LegendNANA
23:00 16.8 15.3 91 LegendMM 18 2 LegendMM 100.15     LegendNANA

Notes on Data Quality.

Legend

  • E = Estimated
  • M = Missing
  • NA = Not Available*
  • [empty] = Indicates an unobserved value
Date modified: